This demonstration page uses our WeatherBlox Daily Observations layout. Learn more.

Hourly Observations for January 4, 2020

Temp ( °F °C ) Dew Point ( °F °C ) Humidity (%) Winds ( mph kmh ) Pressure ( in mb ) Visibility ( mi km ) Precip ( " mm )
12:15 am 00:15 Clear 23 -4.8 19 -7.3 83 83 WNW 3 6 30.31 1026 10 16.0934 0 0
12:35 am 00:35 Clear 24 -4.2 19 -7.2 80 80 WNW 3 6 30.31 1026 10 16.0934 0 0
12:55 am 00:55 Clear 24 -4.5 19 -7.2 82 82 WNW 5 7 30.31 1026 10 16.0934 0 0
1:15 am 01:15 Clear 24 -4.5 19 -7.4 80 80 WNW 5 7 30.31 1026 10 16.0934 0 0
1:35 am 01:35 Clear 22 -5.5 18 -7.9 83 83 WNW 5 7 30.32 1027 10 16.0934 0 0
1:55 am 01:55 Clear 23 -5.1 19 -7.5 83 83 W 3 6 30.32 1027 10 16.0934 0 0
2:15 am 02:15 Clear 22 -5.3 18 -8 82 82 WSW 5 7 30.34 1027 10 16.0934 0 0
2:35 am 02:35 Clear 23 -5.2 17 -8.4 78 78 WSW 3 6 30.34 1027 10 16.0934 0 0
2:55 am 02:55 Clear 23 -5.2 18 -8 81 81 W 5 7 30.35 1028 10 16.0934 0 0
3:15 am 03:15 Clear 22 -5.5 18 -7.9 83 83 W 5 7 30.35 1028 10 16.0934 0 0
3:35 am 03:35 Clear 22 -5.5 18 -8 83 83 W 5 7 30.34 1027 10 16.0934 0 0
3:55 am 03:55 Clear 23 -5 18 -7.7 82 82 WSW 3 6 30.31 1027 10 16.0934 0 0
4:15 am 04:15 Clear 23 -5 18 -7.8 81 81 WSW 3 6 30.31 1027 10 16.0934 0 0
4:35 am 04:35 Clear 22 -5.7 17 -8.5 81 81 Calm 30.32 1027 10 16.0934 0 0
4:55 am 04:55 Clear 24 -4.7 18 -8 78 78 WSW 3 6 30.31 1026 10 16.0934 0 0
5:15 am 05:15 Clear 25 -3.8 20 -6.5 82 82 WSW 7 11 30.3 1026 10 16.0934 0 0
5:35 am 05:35 Partly Cloudy 26 -3.5 19 -7 77 77 WSW 7 11 30.3 1026 10 16.0934 0 0
5:55 am 05:55 Partly Cloudy 27 -3 19 -7.2 73 73 WSW 6 9 30.28 1026 10 16.0934 0 0
6:15 am 06:15 Mostly Cloudy 27 -2.8 20 -6.5 76 76 SW 8 13 30.28 1025 10 16.0934 0 0
6:35 am 06:35 Cloudy 27 -2.9 20 -6.5 77 77 SW 7 11 30.28 1026 10 16.0934 0 0
6:55 am 06:55 Cloudy 27 -3 20 -6.6 76 76 SW 6 9 30.28 1026 10 16.0934 0 0
7:15 am 07:15 Cloudy 27 -2.8 20 -6.9 74 74 SW 7 11 30.27 1025 10 16.0934 0 0
7:35 am 07:35 Mostly Cloudy 26 -3.2 19 -7.1 75 75 SW 8 13 30.27 1025 10 16.0934 0 0
7:55 am 07:55 Clear 26 -3.5 19 -7.1 76 76 SW 8 13 30.27 1025 10 16.0934 0 0
8:15 am 08:15 Sunny 25 -3.7 19 -7 78 78 SW 8 13 30.27 1025 10 16.0934 0 0
8:35 am 08:35 Sunny 26 -3.1 20 -6.5 78 78 SW 9 15 30.27 1025 10 16.0934 0 0
8:55 am 08:55 Sunny 27 -2.6 21 -6.1 77 77 SW 12 19 30.27 1025 10 16.0934 0 0
9:15 am 09:15 Sunny 29 -1.7 22 -5.4 76 76 SW 12 19 30.27 1025 10 16.0934 0 0
9:35 am 09:35 Sunny 30 -0.9 24 -4.6 76 76 SSW 9 15 30.26 1025 10 16.0934 0 0
9:55 am 09:55 Sunny 31 -0.5 25 -4.1 77 77 SW 10 17 30.25 1024 10 16.0934 0 0
10:15 am 10:15 Sunny 32 -0.2 25 -3.9 76 76 SW 13 20 30.26 1025 10 16.0934 0 0
10:35 am 10:35 Sunny 32 0 26 -3.2 79 79 SW 13 20 30.25 1024 10 16.0934 0 0
10:55 am 10:55 Sunny 33 0.8 27 -2.6 78 78 SW 9 15 30.23 1024 10 16.0934 0 0
11:15 am 11:15 Sunny 35 1.9 29 -1.9 76 76 SW 7 11 30.21 1023 10 16.0934 0 0
11:35 am 11:35 Sunny 37 2.8 29 -1.5 74 74 SSW 10 17 30.18 1022 10 16.0934 0 0
11:55 am 11:55 Sunny 38 3.3 30 -1.1 73 73 SW 9 15 30.15 1021 10 16.0934 0 0
12:15 pm 12:15 Sunny 39 3.8 31 -0.6 73 73 SW 12 19 30.15 1021 10 16.0934 0 0
12:35 pm 12:35 Sunny 40 4.6 32 -0.1 72 72 SW 9 15 30.12 1020 10 16.0934 0 0
12:55 pm 12:55 Sunny 41 5 32 0 70 70 SW 12 19 30.11 1020 10 16.0934 0 0
1:15 pm 13:15 Sunny 42 5.4 32 0.1 69 69 SW 12 19 30.08 1019 10 16.0934 0 0
1:35 pm 13:35 Sunny 43 5.9 32 0.2 67 67 SW 13 20 30.06 1018 10 16.0934 0 0
1:55 pm 13:55 Sunny 43 6.1 33 0.4 67 67 SW 12 19 30.06 1018 10 16.0934 0 0
2:15 pm 14:15 Sunny 44 6.4 34 1 69 69 SW 9 15 30.05 1017 10 16.0934 0 0
2:35 pm 14:35 Sunny 44 6.8 34 1.3 68 68 SSW 10 17 30.04 1017 10 16.0934 0 0
2:55 pm 14:55 Sunny 45 7.2 35 1.7 68 68 SW 9 15 30.04 1017 10 16.0934 0 0
3:15 pm 15:15 Sunny 45 7.1 35 1.9 70 70 SSW 13 20 30.03 1017 10 16.0934 0 0
3:35 pm 15:35 Sunny 46 7.7 36 2.2 68 68 SSW 10 17 30.02 1017 10 16.0934 0 0
3:55 pm 15:55 Sunny 46 7.5 36 2.2 69 69 SSW 8 13 30.02 1016 10 16.0934 0 0
4:15 pm 16:15 Sunny 45 7.2 36 2 70 70 SSW 8 13 30.02 1017 10 16.0934 0 0
4:35 pm 16:35 Sunny 45 7.4 36 2.1 69 69 S 10 17 30.02 1016 10 16.0934 0 0
4:55 pm 16:55 Sunny 44 6.9 36 2.1 72 72 SSW 10 17 30.02 1017 10 16.0934 0 0
5:15 pm 17:15 Sunny 44 6.5 35 1.9 73 73 SSW 8 13 30.02 1017 10 16.0934 0 0
5:35 pm 17:35 Clear 43 5.9 35 1.5 74 74 SSW 12 19 30.02 1017 10 16.0934 0 0
5:55 pm 17:55 Clear 42 5.6 34 1.1 73 73 SSW 9 15 30.01 1016 10 16.0934 0 0
6:15 pm 18:15 Clear 40 4.7 33 0.7 76 76 SSW 7 11 30.02 1017 10 16.0934 0 0
6:35 pm 18:35 Clear 43 6 34 0.9 70 70 SSW 10 17 30.01 1016 10 16.0934 0 0
6:55 pm 18:55 Clear 42 5.8 34 0.9 71 71 SSW 8 13 30.01 1016 10 16.0934 0 0
7:15 pm 19:15 Clear 41 5 33 0.6 73 73 SSW 7 11 30.01 1016 10 16.0934 0 0
7:35 pm 19:35 Clear 41 5 33 0.6 73 73 SSW 8 13 30 1016 10 16.0934 0 0
7:55 pm 19:55 Clear 40 4.6 33 0.5 75 75 SSW 9 15 30 1016 10 16.0934 0 0
8:15 pm 20:15 Clear 39 4 32 0.1 76 76 SSW 8 13 30 1016 10 16.0934 0 0
8:35 pm 20:35 Clear 38 3.5 32 0 78 78 SSW 10 17 30.01 1016 10 16.0934 0 0
8:55 pm 20:55 Clear 40 4.3 32 0 74 74 SSW 13 20 29.98 1015 10 16.0934 0 0
9:15 pm 21:15 Clear 40 4.5 32 0 73 73 SSW 10 17 29.98 1015 10 16.0934 0 0
9:35 pm 21:35 Clear 41 5 32 0 70 70 SSW 12 19 29.98 1015 10 16.0934 0 0
9:55 pm 21:55 Clear 40 4.4 32 0 73 73 SSW 12 19 29.98 1015 10 16.0934 0 0
10:15 pm 22:15 Clear 39 4 32 -0.1 75 75 SW 10 17 29.99 1015 10 16.0934 0 0
10:35 pm 22:35 Clear 40 4.2 32 -0.2 73 73 SW 10 17 30.01 1016 10 16.0934 0 0
10:55 pm 22:55 Clear 39 3.9 31 -0.4 74 74 W 9 15 30.04 1017 10 16.0934 0 0
11:15 pm 23:15 Clear 38 3.6 31 -0.5 75 75 W 9 15 30.04 1017 10 16.0934 0 0
11:35 pm 23:35 Clear 39 3.7 31 -0.6 74 74 W 12 19 30.04 1017 10 16.0934 0 0
11:55 pm 23:55 Clear 38 3.6 30 -1 72 72 WSW 8 13 30.02 1017 10 16.0934 0 0

Powered by AerisWeather